FW3841 Weather Reports


Display with metric or nautical units.
time (UTC)temp
F
wind
direction
speed
MPH
gust
MPH
rain 1hr
in
rain 24hr
in
rain mn
in
humidity
%
barometer
mb
20260506222544 61 131 1.0 2.0 0.00 0.00 0.00 76 1023.5
20260506222042 61 0 1.0 2.0 0.00 0.00 0.00 78 1023.6
20260506221548 61 0 1.0 7.0 0.00 0.00 0.00 78 1023.6
20260506221041 61 60 1.0 7.0 0.00 0.00 0.00 77 1023.6
20260506220541 61 0 1.0 4.0 0.00 0.00 0.00 77 1023.6
20260506220106 61 97 1.0 4.0 0.00 0.00 0.00 79 1023.7
20260506215541 61 278 1.0 4.0 0.00 0.00 0.00 76 1023.6
20260506215041 61 296 1.0 4.0 0.00 0.00 0.00 78 1023.7
20260506214549 61 94 1.0 4.0 0.00 0.00 0.00 77 1023.6
20260506214039 61 186 0.0 5.0 0.00 0.00 0.00 77 1023.6
20260506213538 61 181 2.0 5.0 0.00 0.00 0.00 76 1023.6
20260506213051 61 342 0.0 4.0 0.00 0.00 0.00 79 1023.6
20260506212539 60 107 1.0 4.0 0.00 0.00 0.00 79 1023.6
20260506212040 60 315 1.0 5.0 0.00 0.00 0.00 78 1023.7
20260506211555 60 244 1.0 5.0 0.00 0.00 0.00 78 1023.6
20260506211039 60 78 2.0 4.0 0.00 0.00 0.00 76 1023.5
20260506210540 60 302 1.0 3.0 0.00 0.00 0.00 77 1023.6
20260506210126 60 171 1.0 4.0 0.00 0.00 0.00 78 1023.6
20260506205539 60 84 1.0 4.0 0.00 0.00 0.00 78 1023.6
20260506205041 60 26 1.0 4.0 0.00 0.00 0.00 75 1023.6
20260506204550 60 59 1.0 4.0 0.00 0.00 0.00 77 1023.5
20260506204039 60 218 0.0 3.0 0.00 0.00 0.00 78 1023.6
20260506203540 59 175 1.0 4.0 0.00 0.00 0.00 77 1023.6
20260506203100 60 0 1.0 4.0 0.00 0.00 0.00 77 1023.5
20260506202541 59 355 0.0 5.0 0.00 0.00 0.00 77 1023.5
20260506202039 59 355 1.0 5.0 0.00 0.00 0.00 77 1023.6
20260506201553 59 0 1.0 4.0 0.00 0.00 0.00 76 1023.5
20260506201041 59 59 1.0 3.0 0.00 0.00 0.00 78 1023.5
20260506200541 59 65 1.0 4.0 0.00 0.00 0.00 77 1023.6
20260506200052 59 0 0.0 4.0 0.00 0.00 0.00 78 1023.5
20260506195540 59 0 1.0 4.0 0.00 0.00 0.00 76 1023.6
20260506195041 59 128 1.0 4.0 0.00 0.00 0.00 77 1023.6
20260506194554 59 49 1.0 3.0 0.00 0.00 0.00 77 1023.5
20260506194042 59 269 1.0 4.0 0.00 0.00 0.00 77 1023.4
20260506193543 59 5 1.0 5.0 0.00 0.00 0.00 77 1023.6
20260506193051 59 178 1.0 5.0 0.00 0.00 0.00 75 1023.6
20260506192541 59 172 2.0 5.0 0.00 0.00 0.00 78 1023.4
20260506192040 60 28 1.0 5.0 0.00 0.00 0.00 76 1023.5
20260506191552 60 88 2.0 5.0 0.00 0.00 0.00 76 1023.4
20260506191040 60 0 1.0 4.0 0.00 0.00 0.00 76 1023.4
20260506190542 60 0 0.0 4.0 0.00 0.00 0.00 78 1023.3
20260506190053 59 78 1.0 4.0 0.00 0.00 0.00 77 1023.4
20260506185540 59 149 1.0 6.0 0.00 0.00 0.00 77 1023.4
20260506185040 59 0 1.0 7.0 0.00 0.00 0.00 77 1023.5
20260506184553 59 207 2.0 7.0 0.00 0.00 0.00 77 1023.5
20260506184041 58 157 1.0 6.0 0.00 0.00 0.00 79 1023.6
20260506183543 58 355 2.0 6.0 0.00 0.00 0.00 78 1023.5
20260506183100 58 93 0.0 3.0 0.00 0.00 0.00 79 1023.6
20260506182541 57 45 1.0 3.0 0.00 0.00 0.00 79 1023.4
20260506182040 57 355 1.0 4.0 0.00 0.00 0.00 77 1023.4
20260506181608 57 216 0.0 4.0 0.00 0.00 0.00 81 1023.5
20260506181041 57 188 1.0 6.0 0.00 0.00 0.00 81 1023.4
20260506180541 56 348 2.0 6.0 0.00 0.00 0.00 79 1023.5
20260506180052 56 56 0.0 5.0 0.00 0.00 0.00 81 1023.6
20260506175540 56 319 2.0 5.0 0.00 0.00 0.00 81 1023.5
20260506175042 56 350 1.0 4.0 0.00 0.00 0.00 81 1023.6
20260506174551 56 95 1.0 5.0 0.00 0.00 0.00 81 1023.4
20260506174042 56 155 1.0 5.0 0.00 0.00 0.00 82 1023.5
20260506173542 56 0 1.0 4.0 0.00 0.00 0.00 82 1023.4
20260506173122 56 86 1.0 4.0 0.00 0.00 0.00 82 1023.3
20260506172541 56 0 1.0 4.0 0.00 0.00 0.00 83 1023.2
20260506172041 55 231 1.0 4.0 0.00 0.00 0.00 83 1023.2
20260506171601 55 0 1.0 4.0 0.00 0.00 0.00 83 1023.1
20260506171043 55 269 1.0 3.0 0.00 0.00 0.00 83 1023.0
20260506170541 55 0 0.0 3.0 0.00 0.00 0.00 84 1023.1
20260506165543 54 308 1.0 6.0 0.00 0.00 0.00 84 1023.1
20260506165041 54 335 1.0 4.0 0.00 0.00 0.00 84 1023.1
20260506164553 54 306 0.0 3.0 0.00 0.00 0.00 85 1023.1
20260506164040 54 348 1.0 5.0 0.00 0.00 0.00 85 1022.9
20260506163542 54 331 0.0 5.0 0.00 0.00 0.00 85 1022.9
20260506163055 54 183 1.0 3.0 0.00 0.00 0.00 85 1022.8
20260506162542 54 280 1.0 3.0 0.00 0.00 0.00 85 1022.9
20260506162044 53 44 0.0 3.0 0.00 0.00 0.00 86 1023.0
20260506161551 53 313 1.0 3.0 0.00 0.00 0.00 86 1022.8
20260506161040 53 0 1.0 3.0 0.00 0.00 0.00 86 1023.0
20260506160540 53 13 1.0 3.0 0.00 0.00 0.00 86 1022.9
20260506160109 53 9 0.0 4.0 0.00 0.00 0.00 86 1022.9
20260506155538 53 0 0.0 4.0 0.00 0.00 0.00 86 1022.8
20260506155039 53 0 0.0 3.0 0.00 0.00 0.00 86 1022.7
20260506154554 53 0 0.0 3.0 0.00 0.00 0.00 86 1022.8
20260506154042 53 99 0.0 2.0 0.00 0.00 0.00 86 1022.6
20260506153540 53 0 0.0 2.0 0.00 0.00 0.00 86 1022.7
20260506153050 53 324 0.0 2.0 0.00 0.00 0.00 87 1022.7
20260506152541 52 0 0.0 3.0 0.00 0.00 0.00 86 1022.7
20260506152041 52 327 0.0 3.0 0.00 0.00 0.00 86 1022.7
20260506151555 52 315 0.0 3.0 0.00 0.00 0.00 87 1022.5
20260506151040 52 62 0.0 2.0 0.00 0.00 0.00 87 1022.6
20260506150543 52 71 0.0 4.0 0.00 0.00 0.00 87 1022.3
20260506150052 52 0 1.0 4.0 0.00 0.00 0.00 87 1022.3
20260506145541 52 0 1.0 4.0 0.00 0.00 0.00 88 1022.4
20260506145040 52 0 1.0 4.0 0.00 0.00 0.00 87 1021.9
20260506144554 52 221 0.0 3.0 0.00 0.00 0.00 88 1021.9
20260506144040 52 153 1.0 4.0 0.00 0.00 0.00 88 1021.9
20260506143540 52 161 0.0 4.0 0.00 0.00 0.00 88 1022.1
20260506143053 52 162 1.0 4.0 0.00 0.00 0.00 88 1022.3
20260506142540 51 0 0.0 2.0 0.00 0.00 0.00 89 1022.6
20260506142045 51 71 0.0 3.0 0.00 0.00 0.00 89 1022.6
20260506141554 51 71 0.0 3.0 0.00 0.00 0.00 88 1022.4
20260506141044 51 0 0.0 1.0 0.00 0.00 0.00 89 1022.5
20260506140544 51 0 0.0 2.0 0.00 0.00 0.00 89 1022.5
20260506140056 51 355 0.0 2.0 0.00 0.00 0.00 89 1022.6
20260506135541 51 0 0.0 2.0 0.00 0.00 0.00 89 1022.7
20260506135040 51 0 0.0 2.0 0.00 0.00 0.00 89 1022.6
20260506134559 51 0 0.0 2.0 0.00 0.00 0.00 89 1022.5
20260506134040 51 143 0.0 2.0 0.00 0.00 0.00 89 1022.4
20260506133542 51 0 0.0 2.0 0.00 0.00 0.00 89 1022.5
20260506133058 51 0 0.0 1.0 0.00 0.00 0.00 89 1022.2
20260506132541 51 0 0.0 1.0 0.00 0.00 0.00 89 1022.1
20260506132044 51 0 0.0 2.0 0.00 0.00 0.00 89 1022.1
20260506131602 51 0 0.0 2.0 0.00 0.00 0.00 89 1022.0
20260506131041 51 0 0.0 2.0 0.00 0.00 0.00 89 1022.0
20260506130541 51 0 0.0 2.0 0.00 0.00 0.00 89 1022.0
20260506130054 51 0 0.0 2.0 0.00 0.00 0.00 89 1022.1
20260506125540 51 143 0.0 2.0 0.00 0.00 0.00 89 1022.0
20260506125040 51 0 0.0 2.0 0.00 0.00 0.00 89 1022.0
20260506124558 51 146 0.0 3.0 0.00 0.00 0.00 89 1021.8
20260506124040 51 0 0.0 3.0 0.00 0.00 0.00 89 1021.9
20260506123541 51 0 0.0 1.0 0.00 0.00 0.00 89 1021.8
20260506123051 51 0 0.0 4.0 0.00 0.00 0.00 88 1021.8
20260506122543 51 0 0.0 4.0 0.00 0.00 0.00 88 1021.7
20260506122042 51 0 0.0 1.0 0.00 0.00 0.00 89 1021.6
20260506121553 51 0 0.0 2.0 0.00 0.00 0.00 89 1021.6
20260506121042 51 0 0.0 2.0 0.00 0.00 0.00 89 1021.5
20260506120545 51 0 0.0 2.0 0.00 0.00 0.00 88 1021.5
20260506120056 51 101 0.0 2.0 0.00 0.00 0.00 88 1021.6
20260506115541 51 0 0.0 1.0 0.00 0.00 0.00 88 1021.6
20260506115041 51 0 0.0 2.0 0.00 0.00 0.00 88 1021.6
20260506114556 51 0 0.0 2.0 0.00 0.00 0.00 88 1021.6
20260506114042 51 0 0.0 2.0 0.00 0.00 0.00 88 1021.4
20260506113542 51 40 0.0 2.0 0.00 0.00 0.00 88 1021.3
20260506113054 51 35 0.0 2.0 0.00 0.00 0.00 88 1021.4
20260506112545 51 34 0.0 3.0 0.00 0.00 0.00 88 1021.4
20260506112042 51 0 0.0 3.0 0.00 0.00 0.00 88 1021.5
20260506111549 51 0 0.0 2.0 0.00 0.00 0.00 89 1021.5
20260506111042 51 0 0.0 3.0 0.00 0.00 0.00 88 1021.4
20260506110542 52 82 0.0 3.0 0.00 0.00 0.00 88 1021.3
20260506110103 52 77 0.0 2.0 0.00 0.00 0.00 89 1021.2
20260506105539 52 0 0.0 3.0 0.00 0.00 0.00 88 1021.3
20260506105044 52 158 0.0 5.0 0.00 0.00 0.00 89 1021.1
20260506104555 52 0 0.0 5.0 0.00 0.00 0.00 88 1021.0
20260506104042 52 0 0.0 2.0 0.00 0.00 0.00 89 1021.0
20260506103542 52 0 0.0 2.0 0.00 0.00 0.00 89 1021.0
20260506103050 52 0 0.0 2.0 0.00 0.00 0.00 89 1021.0
20260506102542 52 0 0.0 3.0 0.00 0.00 0.00 89 1020.9
20260506102043 52 189 0.0 3.0 0.00 0.00 0.00 89 1021.0
20260506101549 52 337 0.0 2.0 0.00 0.00 0.00 89 1021.0
20260506101043 52 0 0.0 2.0 0.00 0.00 0.00 89 1020.9
20260506100542 52 336 0.0 4.0 0.00 0.00 0.00 89 1020.9
20260506100050 52 323 0.0 4.0 0.00 0.00 0.00 89 1020.9
20260506095546 52 0 0.0 3.0 0.00 0.00 0.00 89 1020.8
20260506095042 52 0 0.0 3.0 0.00 0.00 0.00 89 1020.9
20260506094607 52 107 0.0 3.0 0.00 0.00 0.00 89 1020.7
20260506094042 52 355 1.0 3.0 0.00 0.00 0.00 89 1020.8
20260506093542 52 0 0.0 3.0 0.00 0.00 0.00 89 1020.7
20260506093051 52 0 0.0 3.0 0.00 0.00 0.00 89 1020.6
20260506092542 52 268 0.0 3.0 0.00 0.00 0.00 89 1020.7
20260506092042 52 355 0.0 3.0 0.00 0.00 0.00 89 1020.6
20260506091553 53 0 1.0 3.0 0.00 0.00 0.00 89 1020.5
20260506091041 53 0 0.0 3.0 0.00 0.00 0.00 89 1020.5
20260506090543 53 123 1.0 3.0 0.00 0.00 0.00 89 1020.5
20260506090051 53 0 0.0 2.0 0.00 0.00 0.00 89 1020.5
20260506085542 53 136 0.0 2.0 0.00 0.00 0.00 89 1020.5
20260506085043 53 0 0.0 2.0 0.00 0.00 0.00 89 1020.5
20260506084551 53 0 0.0 2.0 0.00 0.00 0.00 89 1020.5
20260506084042 53 0 0.0 2.0 0.00 0.00 0.00 89 1020.5
20260506083545 53 156 0.0 5.0 0.00 0.00 0.00 89 1020.5
20260506083050 53 0 0.0 5.0 0.00 0.00 0.00 89 1020.5
20260506082542 53 0 0.0 1.0 0.00 0.00 0.00 89 1020.5
20260506082039 53 159 0.0 1.0 0.00 0.00 0.00 89 1020.5
20260506081554 53 0 0.0 1.0 0.00 0.00 0.00 89 1020.5
20260506081043 53 0 0.0 2.0 0.00 0.00 0.00 89 1020.4
20260506080542 53 0 0.0 2.0 0.00 0.00 0.00 89 1020.3
20260506073048 53 0 0.0 1.0 0.00 0.00 0.00 89 1020.0
20260506072543 53 0 0.0 1.0 0.00 0.00 0.00 89 1020.0
20260506072043 53 18 0.0 2.0 0.00 0.00 0.00 90 1019.9
20260506071550 53 0 0.0 2.0 0.00 0.00 0.00 90 1019.9
20260506071039 53 99 0.0 1.0 0.00 0.00 0.00 90 1019.9
20260506070542 53 0 0.0 1.0 0.00 0.00 0.00 90 1019.9
20260506062046 52 0 0.0 1.0 0.00 0.00 0.00 91 1019.7
20260506061554 52 0 0.0 1.0 0.00 0.00 0.00 91 1019.6
20260506061042 52 0 0.0 1.0 0.00 0.00 0.00 91 1019.6
20260506060542 52 0 0.0 0.0 0.00 0.00 0.00 90 1019.7
20260506051040 52 0 0.0 0.0 0.00 0.00 0.00 88 1019.6
20260506050540 52 0 0.0 1.0 0.00 0.00 0.00 88 1019.5
20260506045043 52 0 0.0 0.0 0.00 0.00 0.00 88 1019.5
20260506044603 53 0 0.0 1.0 0.00 0.00 0.00 88 1019.4
20260506044040 53 0 0.0 1.0 0.00 0.00 0.00 87 1019.4
20260506043544 53 0 0.0 1.0 0.00 0.00 0.00 87 1019.3
20260506043050 53 0 0.0 1.0 0.00 0.00 0.00 87 1019.2
20260506042541 54 0 0.0 1.0 0.00 0.00 0.00 87 1019.2
20260506042041 54 320 0.0 1.0 0.00 0.00 0.00 86 1019.1
20260506041555 54 0 0.0 1.0 0.00 0.00 0.00 86 1019.0
20260506041040 55 0 0.0 1.0 0.00 0.00 0.00 86 1018.9
20260506040540 55 0 0.0 1.0 0.00 0.00 0.00 86 1018.9
20260506040054 55 0 0.0 1.0 0.00 0.00 0.00 85 1018.7
20260506035544 55 0 0.0 1.0 0.00 0.00 0.00 85 1018.6
20260506035040 56 0 0.0 1.0 0.00 0.00 0.00 85 1018.5
20260506034552 56 0 0.0 1.0 0.00 0.00 0.00 85 1018.4
20260506034043 56 0 0.0 1.0 0.00 0.00 0.00 84 1018.4
20260506033540 57 320 0.0 1.0 0.00 0.00 0.00 84 1018.3
20260506033055 57 0 0.0 1.0 0.00 0.00 0.00 83 1018.2
20260506032544 57 0 0.0 1.0 0.00 0.00 0.00 83 1018.1
20260506032041 58 0 0.0 0.0 0.00 0.00 0.00 83 1018.1
20260506031557 58 0 0.0 0.0 0.00 0.00 0.00 82 1018.1
20260506031044 58 0 0.0 0.0 0.00 0.00 0.00 82 1018.0
20260506030543 59 0 0.0 1.0 0.00 0.00 0.00 81 1017.9
20260506030052 59 0 0.0 1.0 0.00 0.00 0.00 81 1017.8
20260506025540 59 0 0.0 6.0 0.00 0.00 0.00 80 1017.8
20260506025040 59 320 1.0 6.0 0.00 0.00 0.00 80 1017.7
20260506024559 60 265 1.0 4.0 0.00 0.00 0.00 80 1017.6
20260506024041 60 320 1.0 4.0 0.00 0.00 0.00 79 1017.7
20260506023541 60 312 0.0 1.0 0.00 0.00 0.00 80 1017.6
20260506023058 60 0 0.0 3.0 0.00 0.00 0.00 80 1017.6
20260506022540 61 0 0.0 4.0 0.00 0.00 0.00 79 1017.6
20260506022040 61 313 0.0 4.0 0.00 0.00 0.00 79 1017.6
20260506021552 61 211 0.0 3.0 0.00 0.00 0.00 78 1017.6
20260506021040 61 118 0.0 2.0 0.00 0.00 0.00 78 1017.7
20260506020540 61 0 0.0 2.0 0.00 0.00 0.00 79 1017.6
20260506020054 62 0 0.0 2.0 0.00 0.00 0.00 78 1017.5
20260506015544 62 0 0.0 2.0 0.00 0.00 0.00 77 1017.6
20260506015041 62 304 0.0 2.0 0.00 0.00 0.00 77 1017.6
20260506014556 62 0 1.0 2.0 0.00 0.00 0.00 77 1017.4
20260506014043 62 285 0.0 3.0 0.00 0.00 0.00 77 1017.5
20260506013540 62 0 1.0 3.0 0.00 0.00 0.00 76 1017.5
20260506013051 62 332 1.0 3.0 0.00 0.00 0.00 76 1017.4
20260506012540 63 229 1.0 4.0 0.00 0.00 0.00 76 1017.5
20260506012044 63 89 0.0 4.0 0.00 0.00 0.00 74 1017.4
20260506011553 63 299 2.0 6.0 0.00 0.00 0.00 74 1017.3
20260506011041 63 329 1.0 6.0 0.00 0.00 0.00 73 1017.2
20260506010545 64 322 0.0 4.0 0.00 0.00 0.00 74 1017.4
20260506010052 64 333 0.0 4.0 0.00 0.00 0.00 73 1017.4
20260506005541 64 5 1.0 6.0 0.00 0.00 0.00 72 1017.4
20260506005040 65 312 1.0 8.0 0.00 0.00 0.00 72 1017.5
20260506004555 65 270 1.0 8.0 0.00 0.00 0.00 71 1017.4
20260506004040 66 0 1.0 6.0 0.00 0.00 0.00 71 1017.5
20260506003541 66 302 0.0 4.0 0.00 0.00 0.00 70 1017.4
20260506003052 65 355 1.0 6.0 0.00 0.00 0.00 70 1017.5
20260506002543 66 0 3.0 6.0 0.00 0.00 0.00 70 1017.6
20260506002040 66 0 1.0 4.0 0.00 0.00 0.00 71 1017.6
20260506001551 66 339 1.0 7.0 0.00 0.00 0.00 70 1017.7
20260506001041 65 259 1.0 7.0 0.00 0.00 0.00 72 1017.7
20260506000541 65 0 1.0 4.0 0.00 0.00 0.00 73 1017.7
20260506000054 65 142 1.0 5.0 0.00 0.00 0.00 73 1017.8
20260505235541 65 67 2.0 5.0 0.00 0.00 0.00 71 1017.7
20260505235043 65 313 1.0 5.0 0.00 0.00 0.00 73 1017.8
20260505234556 65 326 1.0 5.0 0.00 0.00 0.00 72 1017.7
20260505234044 65 326 1.0 7.0 0.00 0.00 0.00 72 1017.7
20260505233542 65 283 3.0 7.0 0.00 0.00 0.00 71 1017.8
20260505233054 65 292 1.0 7.0 0.00 0.00 0.00 72 1017.9
20260505232542 65 28 2.0 7.0 0.00 0.00 0.00 71 1018.0
20260505232043 66 298 1.0 7.0 0.00 0.00 0.00 72 1018.0
20260505231603 66 360 2.0 7.0 0.00 0.00 0.00 72 1018.0
20260505231038 66 88 2.0 5.0 0.00 0.00 0.00 74 1018.0
20260505230542 66 323 1.0 5.0 0.00 0.00 0.00 72 1018.0
20260505230057 65 350 1.0 4.0 0.00 0.00 0.00 75 1018.0
20260505225543 64 0 0.0 4.0 0.00 0.00 0.00 74 1018.0
20260505225041 64 165 1.0 4.0 0.00 0.00 0.00 74 1018.0
20260505224554 63 108 2.0 4.0 0.00 0.00 0.00 73 1018.0
20260505224043 64 325 1.0 4.0 0.00 0.00 0.00 75 1018.2
20260505223541 64 272 1.0 7.0 0.00 0.00 0.00 76 1018.1
20260505223049 64 15 2.0 7.0 0.00 0.00 0.00 74 1018.0